This is the latest recevied weather packets stored in our database for station/object G1OCN-WX. If no packets are shown the sender has not sent any weather packets the latest 1 day(s).
| Time | Temp. | Humidity | Pressure | Rain* | Wind** | Luminosity | Snow |
|---|---|---|---|---|---|---|---|
| 1778012480 | 12.78° C | 65% | 1012.8 hPa | 0 mm | 4.47 m/s, 52° | - | - |
| 1778012420 | 12.78° C | 65% | 1012.8 hPa | 0 mm | 4.47 m/s, 56° | - | - |
| 1778012330 | 12.78° C | 65% | 1012.8 hPa | 0 mm | 5.81 m/s, 33° | - | - |
| 1778012270 | 12.78° C | 65% | 1012.7 hPa | 0 mm | 6.26 m/s, 38° | - | - |
| 1778012210 | 12.78° C | 65% | 1012.8 hPa | 0 mm | 5.81 m/s, 38° | - | - |
| 1778012150 | 12.78° C | 65% | 1012.8 hPa | 0 mm | 5.36 m/s, 30° | - | - |
| 1778012060 | 12.78° C | 64% | 1012.8 hPa | 0 mm | 5.36 m/s, 34° | - | - |
| 1778012000 | 12.78° C | 64% | 1012.8 hPa | 0 mm | 5.81 m/s, 35° | - | - |
| 1778011910 | 12.78° C | 64% | 1012.8 hPa | 0 mm | 4.47 m/s, 32° | - | - |
| 1778011850 | 12.78° C | 64% | 1012.8 hPa | 0 mm | 4.02 m/s, 26° | - | - |
| 1778011760 | 12.78° C | 64% | 1012.8 hPa | 0 mm | 5.81 m/s, 24° | - | - |
| 1778011669 | 12.78° C | 64% | 1012.8 hPa | 0 mm | 6.26 m/s, 29° | - | - |
| 1778011580 | 13.33° C | 64% | 1012.8 hPa | 0 mm | 4.02 m/s, 32° | - | - |
| 1778011520 | 13.33° C | 63% | 1012.8 hPa | 0 mm | 5.36 m/s, 46° | - | - |
| 1778011430 | 13.33° C | 63% | 1012.7 hPa | 0 mm | 5.36 m/s, 40° | - | - |
| 1778011370 | 13.33° C | 63% | 1012.7 hPa | 0 mm | 5.81 m/s, 41° | - | - |
| 1778011310 | 13.33° C | 63% | 1012.7 hPa | 0 mm | 5.36 m/s, 34° | - | - |
| 1778011249 | 13.33° C | 63% | 1012.6 hPa | 0 mm | 6.26 m/s, 19° | - | - |
| 1778011160 | 13.33° C | 62% | 1012.6 hPa | 0 mm | 6.71 m/s, 26° | - | - |
| 1778011069 | 13.33° C | 63% | 1012.6 hPa | 0 mm | 4.47 m/s, 34° | - | - |
| 1778011009 | 13.33° C | 62% | 1012.6 hPa | 0 mm | 4.47 m/s, 24° | - | - |
| 1778010920 | 13.33° C | 62% | 1012.6 hPa | 0 mm | 4.47 m/s, 28° | - | - |
| 1778010830 | 13.33° C | 63% | 1012.5 hPa | 0 mm | 4.47 m/s, 19° | - | - |
| 1778010770 | 13.33° C | 62% | 1012.5 hPa | 0 mm | 4.02 m/s, 39° | - | - |
| 1778010710 | 13.33° C | 62% | 1012.5 hPa | 0 mm | 3.58 m/s, 55° | - | - |
* Rain latest hour (hover to see other rain measurements)
** Current wind speed in m/s (hover to see current wind gust speed)